QPF
0.02 0.04 0.07 0.09 0.10 0.11 0.08 0.07 0.07 0.07 0.05 0.03 0.03 0.02 0.02 0.02 0.03 0.03 0.03 0.04 0.03 0.02 0.02 0.02 0.02 0.02 0.02 0.02 0.02 0.02 0.03 0.03 0.04 0.04 0.04 0.03 0.03 0.04
0.03 0.04 0.05 0.06 0.07 0.09 0.09 0.08 0.08 0.08 0.07 0.04 0.03 0.02 0.02 0.03 0.03 0.03 0.03 0.04 0.03 0.02 0.02 0.01 0.01 0.01 0.01 0.01 0.01 0.02 0.02 0.03 0.04 0.05 0.06 0.05 0.04 0.04
0.04 0.05 0.07 0.08 0.08 0.08 0.08 0.08 0.09 0.09 0.09 0.06 0.05 0.04 0.04 0.04 0.04 0.03 0.03 0.03 0.03 0.03 0.02 0.02 0.01 0.01 0.01 0.01 0.01 0.01 0.02 0.02 0.03 0.04 0.05 0.06 0.07 0.06
0.05 0.07 0.07 0.08 0.08 0.08 0.08 0.08 0.08 0.08 0.08 0.08 0.07 0.06 0.06 0.06 0.05 0.05 0.04 0.03 0.02 0.02 0.02 0.02 0.02 0.01 0.01 0.01 0.01 0.01 0.01 0.01 0.02 0.02 0.03 0.04 0.05 0.06
0.06 0.07 0.07 0.07 0.07 0.06 0.06 0.06 0.06 0.06 0.06 0.06 0.06 0.06 0.07 0.07 0.08 0.07 0.06 0.05 0.04 0.03 0.02 0.02 0.02 0.02 0.01 0.01 0.01 0.01 0.01 0.01 0.01 0.02 0.03 0.04 0.04 0.04
0.06 0.07 0.07 0.06 0.06 0.05 0.04 0.04 0.06 0.07 0.06 0.06 0.06 0.06 0.06 0.06 0.07 0.08 0.07 0.06 0.05 0.03 0.03 0.03 0.02 0.02 0.02 0.01 0.01 0.01 0.01 0.01 0.02 0.02 0.02 0.03 0.04 0.05
0.05 0.06 0.05 0.05 0.05 0.06 0.05 0.04 0.04 0.05 0.06 0.07 0.07 0.07 0.06 0.06 0.06 0.07 0.07 0.06 0.05 0.03 0.03 0.03 0.02 0.02 0.02 0.02 0.01 0.01 0.01 0.01 0.02 0.02 0.02 0.03 0.03 0.04
0.04 0.05 0.05 0.05 0.05 0.06 0.06 0.06 0.05 0.05 0.05 0.05 0.06 0.06 0.05 0.05 0.05 0.06 0.07 0.07 0.06 0.04 0.03 0.03 0.02 0.02 0.02 0.02 0.03 0.02 0.02 0.02 0.02 0.01 0.02 0.02 0.03 0.04
0.04 0.05 0.05 0.05 0.05 0.06 0.06 0.06 0.06 0.05 0.05 0.04 0.04 0.04 0.03 0.03 0.04 0.05 0.05 0.07 0.06 0.05 0.05 0.05 0.03 0.02 0.02 0.02 0.03 0.03 0.02 0.02 0.02 0.02 0.02 0.02 0.02 0.03
0.04 0.05 0.06 0.05 0.05 0.06 0.07 0.08 0.07 0.06 0.06 0.05 0.03 0.03 0.03 0.03 0.04 0.05 0.05 0.05 0.06 0.05 0.05 0.06 0.04 0.03 0.02 0.02 0.03 0.04 0.03 0.02 0.02 0.02 0.02 0.02 0.03 0.03
0.03 0.05 0.06 0.05 0.06 0.07 0.07 0.08 0.07 0.07 0.06 0.06 0.06 0.05 0.05 0.05 0.05 0.05 0.05 0.05 0.05 0.04 0.04 0.05 0.04 0.04 0.04 0.03 0.03 0.03 0.04 0.03 0.03 0.03 0.03 0.03 0.04 0.04
0.03 0.04 0.05 0.05 0.06 0.06 0.06 0.06 0.06 0.06 0.05 0.05 0.05 0.05 0.05 0.05 0.05 0.05 0.04 0.04 0.04 0.04 0.03 0.04 0.04 0.04 0.04 0.03 0.02 0.02 0.03 0.04 0.04 0.04 0.04 0.04 0.05 0.05
0.03 0.04 0.04 0.05 0.06 0.07 0.06 0.06 0.05 0.05 0.05 0.05 0.05 0.05 0.05 0.05 0.05 0.05 0.04 0.04 0.04 0.04 0.03 0.04 0.04 0.03 0.03 0.03 0.03 0.03 0.02 0.03 0.04 0.04 0.04 0.05 0.05 0.06
0.04 0.04 0.04 0.05 0.06 0.07 0.07 0.07 0.07 0.06 0.05 0.04 0.04 0.04 0.04 0.04 0.04 0.04 0.04 0.03 0.03 0.03 0.03 0.04 0.05 0.05 0.05 0.04 0.04 0.04 0.03 0.03 0.04 0.04 0.05 0.06 0.06 0.06
0.05 0.05 0.05 0.06 0.06 0.06 0.07 0.08 0.08 0.07 0.06 0.05 0.04 0.03 0.03 0.03 0.03 0.03 0.03 0.04 0.03 0.03 0.03 0.03 0.03 0.05 0.06 0.06 0.05 0.05 0.04 0.04 0.03 0.04 0.04 0.04 0.05 0.05
0.06 0.06 0.06 0.07 0.07 0.08 0.08 0.08 0.08 0.07 0.06 0.04 0.04 0.03 0.03 0.03 0.03 0.03 0.03 0.03 0.04 0.03 0.03 0.03 0.03 0.04 0.06 0.06 0.06 0.05 0.04 0.04 0.04 0.04 0.04 0.04 0.05 0.05
0.06 0.06 0.07 0.08 0.08 0.08 0.08 0.08 0.08 0.08 0.07 0.05 0.04 0.04 0.04 0.04 0.04 0.03 0.03 0.03 0.03 0.03 0.03 0.03 0.03 0.03 0.05 0.06 0.07 0.07 0.05 0.05 0.04 0.04 0.05 0.05 0.05 0.05
0.06 0.06 0.06 0.07 0.07 0.06 0.06 0.07 0.07 0.07 0.06 0.05 0.05 0.05 0.05 0.04 0.04 0.04 0.04 0.04 0.03 0.03 0.03 0.03 0.03 0.04 0.04 0.05 0.06 0.07 0.06 0.06 0.06 0.05 0.05 0.06 0.05 0.05
0.06 0.05 0.05 0.05 0.05 0.05 0.05 0.05 0.05 0.06 0.06 0.06 0.06 0.06 0.06 0.06 0.05 0.05 0.05 0.05 0.04 0.04 0.04 0.03 0.04 0.05 0.05 0.04 0.05 0.05 0.06 0.05 0.05 0.06 0.06 0.06 0.05 0.05
0.05 0.05 0.04 0.04 0.04 0.04 0.04 0.04 0.04 0.05 0.06 0.06 0.07 0.07 0.07 0.07 0.06 0.06 0.05 0.04 0.05 0.04 0.05 0.05 0.04 0.04 0.04 0.04 0.04 0.04 0.04 0.04 0.05 0.05 0.05 0.05 0.05 0.05
0.04 0.04 0.04 0.04 0.03 0.03 0.04 0.04 0.04 0.04 0.04 0.05 0.05 0.05 0.05 0.06 0.06 0.06 0.05 0.05 0.06 0.06 0.06 0.05 0.04 0.05 0.05 0.06 0.06 0.05 0.04 0.04 0.05 0.05 0.05 0.04 0.04 0.04
0.03 0.03 0.03 0.04 0.04 0.04 0.03 0.03 0.04 0.04 0.04 0.04 0.04 0.05 0.05 0.05 0.05 0.05 0.05 0.05 0.05 0.05 0.05 0.05 0.05 0.06 0.06 0.06 0.06 0.05 0.04 0.04 0.05 0.05 0.05 0.04 0.04 0.04
0.02 0.02 0.03 0.03 0.04 0.04 0.04 0.04 0.04 0.04 0.04 0.04 0.04 0.04 0.05 0.05 0.05 0.05 0.05 0.04 0.05 0.05 0.04 0.05 0.05 0.05 0.05 0.05 0.05 0.04 0.04 0.04 0.04 0.04 0.04 0.03 0.03 0.03
MSLP
1029.87 1029.79 1029.71 1029.61 1029.51 1029.43 1029.37 1029.34 1029.35 1029.38 1029.42 1029.46 1029.47 1029.42 1029.30 1029.10 1028.81 1028.46 1028.06 1027.64 1027.22 1026.85 1026.52 1026.26 1026.05 1025.87 1025.72 1025.55 1025.33 1025.06 1024.71 1024.31 1023.87 1023.42 1022.97 1022.56 1022.19 1021.85
1029.66 1029.60 1029.52 1029.43 1029.34 1029.26 1029.21 1029.18 1029.20 1029.25 1029.32 1029.40 1029.46 1029.48 1029.44 1029.33 1029.14 1028.87 1028.56 1028.21 1027.87 1027.54 1027.26 1027.02 1026.82 1026.64 1026.47 1026.26 1026.02 1025.70 1025.32 1024.89 1024.43 1023.97 1023.54 1023.14 1022.81 1022.51
1029.32 1029.24 1029.15 1029.06 1028.96 1028.88 1028.83 1028.82 1028.85 1028.93 1029.04 1029.17 1029.30 1029.39 1029.44 1029.42 1029.33 1029.16 1028.94 1028.68 1028.42 1028.15 1027.92 1027.71 1027.53 1027.35 1027.17 1026.95 1026.67 1026.34 1025.94 1025.51 1025.05 1024.60 1024.19 1023.83 1023.54 1023.28
1028.91 1028.79 1028.67 1028.56 1028.45 1028.36 1028.31 1028.30 1028.36 1028.46 1028.61 1028.79 1028.98 1029.14 1029.27 1029.34 1029.34 1029.27 1029.14 1028.98 1028.79 1028.61 1028.43 1028.26 1028.10 1027.94 1027.75 1027.53 1027.25 1026.92 1026.53 1026.12 1025.69 1025.28 1024.91 1024.59 1024.34 1024.12
1028.47 1028.31 1028.15 1028.01 1027.88 1027.78 1027.72 1027.72 1027.78 1027.90 1028.08 1028.29 1028.52 1028.74 1028.93 1029.07 1029.15 1029.17 1029.13 1029.06 1028.95 1028.84 1028.72 1028.61 1028.48 1028.35 1028.18 1027.97 1027.71 1027.41 1027.06 1026.68 1026.31 1025.95 1025.64 1025.38 1025.16 1024.98
1028.06 1027.85 1027.66 1027.48 1027.33 1027.21 1027.14 1027.13 1027.18 1027.30 1027.48 1027.71 1027.95 1028.20 1028.43 1028.62 1028.76 1028.85 1028.89 1028.90 1028.87 1028.83 1028.78 1028.72 1028.65 1028.55 1028.42 1028.25 1028.03 1027.77 1027.47 1027.17 1026.86 1026.58 1026.34 1026.13 1025.95 1025.79
1027.70 1027.45 1027.21 1027.00 1026.82 1026.67 1026.59 1026.56 1026.60 1026.70 1026.86 1027.07 1027.30 1027.55 1027.78 1027.99 1028.17 1028.32 1028.42 1028.50 1028.55 1028.59 1028.61 1028.61 1028.59 1028.55 1028.46 1028.34 1028.18 1027.98 1027.77 1027.54 1027.32 1027.12 1026.95 1026.80 1026.67 1026.53
1027.35 1027.06 1026.79 1026.55 1026.34 1026.17 1026.06 1026.00 1026.01 1026.08 1026.20 1026.37 1026.57 1026.79 1027.01 1027.22 1027.42 1027.60 1027.76 1027.90 1028.03 1028.14 1028.23 1028.31 1028.35 1028.36 1028.34 1028.28 1028.18 1028.06 1027.92 1027.78 1027.65 1027.54 1027.44 1027.36 1027.26 1027.14
1026.97 1026.64 1026.34 1026.07 1025.83 1025.64 1025.50 1025.42 1025.38 1025.41 1025.48 1025.60 1025.75 1025.93 1026.12 1026.33 1026.53 1026.74 1026.95 1027.15 1027.35 1027.54 1027.70 1027.85 1027.96 1028.04 1028.08 1028.08 1028.05 1028.01 1027.95 1027.89 1027.85 1027.82 1027.80 1027.77 1027.71 1027.62
1026.50 1026.14 1025.80 1025.50 1025.24 1025.03 1024.86 1024.74 1024.67 1024.65 1024.67 1024.74 1024.83 1024.97 1025.13 1025.32 1025.54 1025.77 1026.03 1026.29 1026.56 1026.83 1027.08 1027.30 1027.48 1027.63 1027.73 1027.80 1027.83 1027.85 1027.87 1027.89 1027.92 1027.96 1028.00 1028.03 1028.02 1027.95
1025.92 1025.51 1025.14 1024.82 1024.54 1024.30 1024.11 1023.96 1023.85 1023.79 1023.76 1023.78 1023.83 1023.92 1024.06 1024.25 1024.47 1024.74 1025.05 1025.38 1025.73 1026.08 1026.40 1026.70 1026.96 1027.17 1027.34 1027.46 1027.56 1027.64 1027.72 1027.80 1027.90 1027.99 1028.09 1028.16 1028.19 1028.15
1025.25 1024.80 1024.39 1024.04 1023.73 1023.47 1023.26 1023.08 1022.94 1022.84 1022.78 1022.75 1022.77 1022.84 1022.96 1023.15 1023.40 1023.70 1024.06 1024.46 1024.89 1025.31 1025.72 1026.09 1026.42 1026.70 1026.93 1027.11 1027.26 1027.39 1027.52 1027.66 1027.80 1027.94 1028.08 1028.18 1028.25 1028.25
1024.55 1024.06 1023.62 1023.23 1022.90 1022.62 1022.38 1022.18 1022.02 1021.88 1021.79 1021.73 1021.72 1021.77 1021.88 1022.07 1022.34 1022.69 1023.10 1023.56 1024.05 1024.55 1025.03 1025.48 1025.88 1026.22 1026.50 1026.74 1026.94 1027.12 1027.29 1027.47 1027.65 1027.82 1027.99 1028.13 1028.22 1028.25
1023.93 1023.40 1022.92 1022.51 1022.14 1021.84 1021.58 1021.35 1021.16 1021.00 1020.87 1020.78 1020.74 1020.77 1020.88 1021.07 1021.35 1021.73 1022.18 1022.69 1023.24 1023.80 1024.34 1024.85 1025.30 1025.70 1026.04 1026.33 1026.58 1026.81 1027.02 1027.23 1027.44 1027.65 1027.84 1027.99 1028.10 1028.16
1023.46 1022.90 1022.40 1021.96 1021.57 1021.24 1020.95 1020.70 1020.47 1020.27 1020.11 1019.98 1019.91 1019.91 1019.99 1020.18 1020.46 1020.84 1021.31 1021.85 1022.43 1023.03 1023.62 1024.18 1024.68 1025.13 1025.52 1025.86 1026.16 1026.43 1026.69 1026.93 1027.18 1027.40 1027.61 1027.78 1027.91 1027.98
1023.22 1022.64 1022.12 1021.66 1021.26 1020.90 1020.58 1020.29 1020.02 1019.78 1019.57 1019.39 1019.27 1019.22 1019.27 1019.41 1019.67 1020.03 1020.49 1021.03 1021.62 1022.24 1022.85 1023.44 1023.98 1024.47 1024.91 1025.30 1025.64 1025.96 1026.26 1026.55 1026.82 1027.08 1027.30 1027.49 1027.62 1027.70
1023.18 1022.62 1022.10 1021.63 1021.21 1020.83 1020.48 1020.15 1019.83 1019.54 1019.26 1019.02 1018.84 1018.73 1018.71 1018.79 1019.00 1019.32 1019.74 1020.24 1020.81 1021.42 1022.03 1022.63 1023.19 1023.71 1024.19 1024.62 1025.02 1025.39 1025.74 1026.06 1026.37 1026.65 1026.90 1027.09 1027.24 1027.33
1023.32 1022.78 1022.27 1021.82 1021.39 1020.99 1020.61 1020.24 1019.88 1019.52 1019.17 1018.86 1018.60 1018.40 1018.30 1018.31 1018.44 1018.69 1019.04 1019.49 1020.02 1020.59 1021.18 1021.77 1022.34 1022.88 1023.38 1023.86 1024.30 1024.72 1025.11 1025.48 1025.82 1026.13 1026.39 1026.60 1026.75 1026.85
1023.52 1023.02 1022.55 1022.11 1021.70 1021.29 1020.89 1020.49 1020.07 1019.65 1019.24 1018.84 1018.50 1018.22 1018.03 1017.95 1017.99 1018.15 1018.42 1018.80 1019.26 1019.78 1020.33 1020.90 1021.46 1022.01 1022.54 1023.04 1023.52 1023.98 1024.42 1024.82 1025.20 1025.53 1025.82 1026.04 1026.20 1026.30
1023.70 1023.26 1022.83 1022.43 1022.03 1021.63 1021.22 1020.78 1020.33 1019.86 1019.38 1018.92 1018.49 1018.13 1017.85 1017.68 1017.63 1017.70 1017.90 1018.19 1018.59 1019.05 1019.55 1020.09 1020.63 1021.18 1021.72 1022.24 1022.75 1023.25 1023.71 1024.15 1024.55 1024.91 1025.21 1025.44 1025.61 1025.72
1023.78 1023.40 1023.03 1022.67 1022.30 1021.91 1021.50 1021.05 1020.57 1020.06 1019.53 1019.02 1018.53 1018.09 1017.74 1017.50 1017.37 1017.36 1017.47 1017.70 1018.02 1018.42 1018.88 1019.38 1019.91 1020.44 1020.98 1021.52 1022.05 1022.56 1023.05 1023.51 1023.93 1024.30 1024.61 1024.86 1025.03 1025.14
1023.72 1023.40 1023.09 1022.78 1022.45 1022.09 1021.69 1021.24 1020.74 1020.21 1019.65 1019.09 1018.56 1018.07 1017.67 1017.36 1017.17 1017.10 1017.15 1017.31 1017.58 1017.93 1018.34 1018.81 1019.31 1019.83 1020.37 1020.91 1021.45 1021.97 1022.47 1022.95 1023.38 1023.75 1024.06 1024.31 1024.49 1024.60
1023.52 1023.27 1023.02 1022.75 1022.46 1022.13 1021.74 1021.30 1020.80 1020.26 1019.69 1019.10 1018.54 1018.03 1017.59 1017.25 1017.01 1016.89 1016.89 1017.01 1017.23 1017.54 1017.92 1018.35 1018.83 1019.34 1019.87 1020.41 1020.94 1021.47 1021.98 1022.45 1022.88 1023.26 1023.57 1023.81 1023.99 1024.11
Thickness
5461 5462 5464 5466 5467 5469 5470 5472 5473 5476 5480 5480 5477 5476 5475 5475 5476 5477 5479 5481 5482 5484 5485 5487 5488 5489 5491 5492 5494 5495 5496 5498 5500 5502 5503 5505 5507 5509
5448 5449 5451 5452 5453 5455 5456 5456 5457 5460 5464 5466 5463 5462 5461 5461 5462 5463 5465 5467 5469 5470 5471 5473 5475 5476 5478 5479 5481 5483 5484 5485 5487 5489 5490 5492 5494 5496
5434 5436 5437 5438 5439 5440 5441 5442 5443 5443 5446 5449 5447 5446 5446 5447 5448 5449 5451 5453 5455 5456 5458 5460 5461 5463 5464 5466 5468 5470 5471 5472 5474 5476 5477 5479 5480 5483
5422 5422 5424 5424 5426 5426 5427 5427 5428 5429 5430 5432 5432 5431 5432 5432 5434 5435 5436 5438 5440 5442 5444 5446 5447 5449 5451 5452 5454 5456 5458 5459 5460 5462 5464 5466 5468 5469
5409 5409 5410 5410 5412 5412 5413 5413 5414 5414 5414 5416 5418 5418 5417 5418 5419 5421 5422 5423 5425 5427 5429 5431 5433 5435 5437 5438 5440 5441 5444 5446 5448 5449 5450 5452 5454 5456
5395 5395 5396 5396 5398 5398 5399 5399 5399 5398 5399 5400 5402 5403 5403 5402 5404 5406 5408 5409 5411 5412 5414 5416 5418 5420 5422 5424 5426 5428 5430 5432 5433 5436 5437 5439 5441 5442
5382 5381 5382 5382 5383 5384 5385 5385 5385 5385 5385 5387 5388 5388 5389 5388 5390 5392 5392 5394 5396 5397 5399 5402 5403 5406 5407 5410 5411 5413 5415 5417 5419 5421 5423 5425 5427 5429
5368 5368 5368 5368 5369 5370 5371 5371 5372 5372 5372 5373 5375 5376 5377 5376 5376 5376 5376 5378 5381 5383 5383 5386 5386 5390 5393 5395 5397 5399 5401 5403 5405 5407 5409 5411 5412 5414
5353 5354 5355 5355 5354 5355 5357 5357 5358 5359 5360 5361 5362 5365 5365 5364 5363 5362 5362 5364 5367 5367 5365 5370 5371 5374 5377 5380 5382 5384 5386 5388 5390 5392 5394 5396 5398 5400
5339 5340 5341 5342 5341 5341 5342 5343 5344 5345 5346 5347 5349 5351 5350 5348 5348 5348 5348 5348 5349 5349 5348 5353 5357 5359 5362 5364 5367 5369 5370 5372 5374 5377 5380 5382 5384 5386
5326 5327 5327 5328 5328 5328 5328 5330 5331 5332 5332 5333 5335 5335 5335 5334 5333 5331 5331 5331 5335 5336 5333 5335 5340 5342 5345 5349 5351 5353 5354 5356 5359 5361 5364 5367 5368 5370
5313 5313 5314 5314 5314 5314 5314 5316 5317 5319 5318 5319 5319 5320 5319 5319 5318 5317 5318 5318 5319 5321 5320 5318 5322 5322 5328 5333 5335 5336 5338 5340 5343 5345 5348 5351 5352 5354
5299 5300 5300 5300 5300 5301 5301 5302 5304 5303 5303 5303 5304 5305 5304 5304 5304 5303 5302 5303 5304 5306 5306 5302 5304 5305 5307 5314 5317 5319 5321 5324 5327 5330 5332 5335 5336 5338
5284 5285 5285 5285 5286 5286 5286 5287 5287 5286 5287 5287 5288 5290 5290 5290 5289 5287 5288 5288 5288 5290 5289 5287 5287 5289 5291 5294 5300 5303 5304 5306 5309 5314 5317 5319 5321 5323
5269 5269 5270 5270 5270 5270 5270 5270 5270 5270 5271 5272 5274 5275 5275 5274 5272 5272 5272 5271 5271 5272 5272 5272 5272 5273 5274 5278 5283 5285 5287 5291 5293 5297 5300 5303 5306 5308
5253 5254 5254 5254 5253 5254 5254 5254 5253 5254 5256 5257 5259 5258 5257 5257 5257 5257 5257 5257 5257 5258 5257 5256 5256 5257 5259 5262 5265 5270 5272 5275 5280 5281 5284 5288 5290 5293
5238 5237 5237 5237 5238 5238 5238 5237 5238 5238 5239 5240 5241 5241 5241 5241 5242 5241 5241 5241 5242 5244 5244 5242 5241 5242 5244 5246 5250 5254 5257 5260 5264 5266 5269 5274 5278 5280
5222 5222 5222 5222 5222 5223 5223 5223 5222 5223 5223 5223 5224 5225 5226 5226 5226 5226 5226 5227 5229 5230 5230 5229 5228 5228 5231 5234 5235 5240 5243 5246 5249 5252 5255 5259 5266 5269
5207 5207 5207 5207 5206 5206 5207 5207 5208 5208 5208 5208 5208 5209 5210 5211 5211 5212 5213 5214 5215 5216 5216 5215 5214 5215 5218 5224 5227 5226 5229 5232 5235 5238 5242 5246 5252 5257
5192 5192 5191 5191 5191 5190 5191 5192 5192 5193 5193 5193 5194 5195 5195 5196 5197 5199 5200 5201 5201 5202 5202 5202 5202 5203 5205 5209 5212 5214 5215 5217 5220 5225 5229 5233 5238 5242
5176 5176 5175 5175 5175 5176 5176 5177 5178 5178 5179 5180 5181 5181 5182 5183 5184 5186 5187 5187 5187 5188 5190 5191 5191 5190 5191 5192 5197 5203 5205 5205 5208 5211 5216 5219 5224 5229
5161 5161 5161 5161 5161 5162 5162 5163 5164 5165 5166 5166 5168 5169 5169 5170 5172 5172 5173 5174 5174 5175 5177 5177 5177 5178 5180 5183 5187 5190 5193 5195 5196 5200 5203 5206 5209 5216
5146 5147 5147 5148 5148 5148 5149 5150 5151 5152 5152 5153 5154 5156 5157 5158 5159 5160 5161 5162 5162 5163 5164 5165 5166 5168 5170 5172 5174 5177 5180 5183 5187 5190 5193 5195 5198 5202